Temperature
14 13 13 13 13 13 13 13 13 12 11 11 11 11 11 11 11 11 11 11 11 11 11 11 10 10 10 10 10 10 10 10 10 10 10 10 9 9
13 13 13 13 13 13 13 13 13 13 12 12 11 11 11 11 11 11 11 11 11 10 10 10 10 10 10 10 10 10 10 10 9 9 9 9 9 9
13 13 13 13 13 13 13 13 13 13 12 12 11 11 11 11 11 11 11 11 10 10 10 10 10 10 10 10 10 10 10 9 9 9 9 9 9 9
13 13 13 13 13 13 13 13 13 12 12 12 11 11 11 11 10 10 10 10 10 10 10 10 10 10 10 10 10 10 9 9 9 9 9 9 8 8
13 13 13 13 13 13 12 12 12 12 12 12 11 11 11 11 10 10 10 10 10 10 10 10 10 10 9 9 9 9 9 9 9 9 9 9 8 8
13 13 13 12 12 12 12 12 12 12 12 11 11 11 11 10 10 10 10 10 10 10 10 9 9 9 9 9 9 9 9 9 9 9 8 8 8 8
13 12 12 12 12 12 12 12 12 12 11 11 11 11 11 10 10 10 10 10 10 10 9 9 9 9 9 9 9 9 9 8 8 8 8 8 8 7
12 12 12 12 12 12 12 12 12 11 11 11 11 11 11 10 10 10 10 10 9 9 9 9 9 9 9 9 9 9 8 8 8 8 8 7 7 7
12 12 12 12 12 12 12 11 11 11 11 11 11 11 11 10 10 10 10 9 9 9 9 9 9 9 9 9 8 8 8 8 8 7 7 7 7 7
12 12 12 12 12 12 11 11 11 11 11 11 11 11 10 10 10 10 10 9 9 9 9 9 9 9 9 8 8 8 8 8 8 7 7 7 7 6
12 12 11 11 11 11 11 11 11 11 11 10 10 10 10 10 10 9 9 9 9 9 8 8 8 8 8 8 8 8 7 7 7 7 7 6 6 6
11 11 11 11 11 11 11 11 11 11 10 10 10 10 10 9 9 9 9 9 8 8 8 8 8 8 8 8 8 7 7 7 7 7 6 6 6 6
11 11 11 11 11 10 10 10 10 10 10 10 10 10 9 9 9 9 9 8 8 8 8 7 7 7 7 7 7 7 7 7 6 6 6 6 5 5
11 11 11 10 10 10 10 10 10 10 9 9 9 9 9 9 9 8 8 8 8 8 7 7 7 7 6 6 6 7 6 6 6 6 6 6 5 5
11 10 10 10 10 10 10 9 9 9 9 9 9 9 9 9 8 8 8 8 8 7 7 7 7 7 6 6 6 6 6 6 6 5 5 5 5 5
10 10 10 10 9 9 9 9 9 9 9 9 9 8 8 8 8 8 8 8 7 7 7 7 6 6 6 6 5 5 5 5 5 5 5 5 4 4
10 9 9 9 9 9 9 9 9 8 8 8 8 8 8 8 8 7 7 7 7 7 7 7 6 6 5 5 5 5 5 5 5 4 4 4 4 4
9 9 9 9 9 9 9 8 8 8 8 8 8 8 7 7 7 7 7 7 7 6 6 6 6 6 5 5 5 5 4 4 4 4 4 4 4 4
9 9 9 9 9 8 8 8 8 8 8 7 7 7 7 7 7 7 6 6 6 6 6 6 5 5 5 5 5 5 4 4 4 4 3 3 3 3
9 9 9 9 8 8 8 8 8 8 7 7 7 7 7 7 6 6 6 6 6 5 5 5 5 5 4 4 4 4 4 3 3 3 3 3 3 3
9 8 8 8 8 8 8 8 8 7 7 7 7 7 7 6 6 6 6 5 5 5 5 5 5 4 4 3 3 4 4 3 3 3 2 2 2 2
8 8 8 8 8 8 8 8 7 7 7 7 7 7 6 6 6 6 6 5 5 5 5 4 4 4 3 3 3 3 3 3 3 2 2 2 1 1
8 8 8 8 8 8 7 7 7 7 7 7 7 6 6 6 6 6 5 5 5 4 4 4 4 3 3 3 3 3 2 2 2 2 2 1 1 1
Wind_Speed
2 2 2 1 2 2 3 4 5 3 2 2 1 1 2 2 3 3 3 3 4 4 4 4 3 3 3 3 4 4 4 4 4 4 5 5 5 6
2 3 2 2 2 2 3 2 3 4 3 3 2 2 3 2 2 3 3 2 2 2 3 3 3 3 3 3 3 3 4 4 4 4 4 4 4 5
2 3 2 2 2 2 2 2 2 3 4 1 1 1 2 2 2 2 2 1 1 1 2 2 2 1 1 1 2 2 2 2 2 2 3 3 4 4
3 3 3 2 3 2 2 2 2 3 4 3 1 1 1 2 2 2 1 1 2 2 2 2 1 1 0 1 1 1 1 1 1 2 2 3 3 4
4 4 4 4 3 2 2 3 2 3 3 4 2 1 1 1 1 0 0 0 1 1 2 2 2 2 1 1 1 1 0 0 0 1 2 3 4 4
3 4 4 5 5 4 3 4 4 4 3 4 2 1 0 0 1 1 1 1 1 1 2 3 3 3 3 2 2 2 2 2 1 1 2 3 4 4
2 3 4 5 6 5 4 5 5 4 3 3 2 1 1 1 2 2 2 1 2 1 1 2 2 3 3 4 4 4 4 4 4 3 3 4 4 5
3 2 2 3 5 6 7 8 8 6 5 4 3 3 4 3 2 2 2 0 2 2 1 2 1 2 4 4 5 5 5 5 5 5 5 5 5 5
4 3 2 2 3 3 4 5 6 7 8 6 6 6 5 6 5 3 3 3 3 2 1 2 1 3 5 5 5 5 6 6 6 6 6 6 6 6
4 4 4 3 4 4 4 3 2 3 5 5 6 6 6 6 6 5 5 2 1 1 2 2 2 3 3 4 4 5 5 5 6 6 6 6 6 6
3 4 4 4 6 7 5 4 3 2 3 5 6 6 6 6 7 4 3 2 1 2 1 2 2 2 2 3 5 5 5 6 6 6 6 6 6 6
2 3 6 6 7 8 6 5 4 4 2 2 1 2 3 4 6 5 5 4 2 2 2 2 1 0 2 2 2 3 4 5 6 6 6 7 6 5
3 3 4 7 7 8 7 5 6 5 3 3 2 1 1 1 2 4 5 4 4 3 3 3 2 1 2 3 3 3 3 3 4 5 6 7 7 5
4 4 4 6 7 7 6 6 5 4 2 2 2 2 2 2 2 3 4 4 5 5 5 5 3 3 2 2 3 3 3 3 3 4 6 6 6 7
4 5 5 5 5 4 5 6 5 3 3 3 3 3 3 3 2 1 1 2 1 2 2 4 4 3 3 3 3 3 3 3 3 3 4 4 4 4
3 4 4 4 3 3 2 3 3 4 4 4 4 3 2 2 2 2 2 1 0 2 2 2 5 5 3 4 4 4 3 3 3 3 3 4 6 6
3 1 1 1 2 2 2 2 2 3 3 2 2 2 2 2 2 2 2 2 2 3 3 2 1 2 4 4 3 4 4 4 4 3 3 4 4 6
4 3 3 4 5 5 4 4 3 4 4 3 3 3 4 3 2 1 1 2 3 3 3 2 1 1 2 3 6 5 4 4 4 4 3 4 5 6
4 4 4 5 5 5 5 5 5 5 4 4 4 4 4 3 3 3 3 3 3 4 3 2 2 2 3 5 4 5 5 4 3 3 4 4 5 6
4 5 5 5 5 5 5 5 4 4 4 4 4 4 4 4 4 4 4 4 4 3 3 3 3 4 5 5 4 4 6 5 4 4 4 4 4 7
5 5 5 5 5 5 5 5 5 5 5 4 4 4 4 4 4 4 4 6 4 4 5 5 5 5 3 1 3 4 4 7 7 4 4 3 4 4
6 6 6 6 6 5 5 5 5 5 5 5 5 5 5 4 5 6 5 5 5 5 5 4 3 2 2 4 6 6 5 4 5 7 7 6 3 4
7 7 6 6 6 5 5 6 6 6 5 5 5 5 5 5 5 5 5 5 4 4 4 3 2 2 3 4 5 5 6 5 3 3 4 8 9 10
Wind_Direction
125 119 120 119 122 144 146 151 148 156 222 240 247 253 172 153 147 132 125 114 107 103 96 93 90 85 82 77 69 65 58 47 46 45 41 35 28 21
130 116 113 125 114 117 145 146 141 148 174 219 219 215 179 162 178 165 164 139 132 120 108 102 104 98 88 81 84 74 66 56 52 47 36 27 21 13
137 137 143 132 119 109 115 128 130 133 146 206 213 180 151 162 163 178 194 196 202 166 149 130 115 105 97 85 104 85 74 59 49 38 24 17 16 10
166 153 160 141 123 119 122 124 136 141 144 155 186 169 187 188 169 171 204 218 207 186 179 181 187 171 176 189 162 114 78 62 42 11 354 353 355 355
175 173 176 155 151 149 141 134 130 121 123 144 172 186 195 161 133 192 236 294 228 230 220 225 216 220 222 209 193 177 135 35 4 346 334 331 333 334
179 178 176 171 172 166 157 150 136 119 120 133 143 152 180 167 128 166 308 309 277 266 255 234 231 233 234 231 231 223 224 235 260 294 304 307 309 316
159 172 180 180 175 170 167 162 148 140 139 143 155 149 187 173 201 202 211 293 308 277 280 267 243 251 257 254 253 248 242 243 247 254 266 280 291 298
169 178 186 180 178 176 172 171 166 164 171 171 182 189 211 210 198 184 175 146 284 269 189 285 236 257 258 251 254 254 256 257 258 259 260 267 277 285
178 181 195 189 167 165 167 171 183 190 184 180 188 202 202 203 183 183 191 195 224 239 160 277 289 269 265 259 260 264 270 268 265 269 269 272 279 285
189 189 185 190 188 169 159 158 181 204 201 194 199 208 207 197 189 190 192 190 264 280 160 231 274 268 275 268 273 273 272 271 271 278 280 276 277 282
203 195 188 192 199 179 161 167 187 236 218 206 212 209 203 193 175 142 140 146 256 273 210 187 258 279 284 280 284 284 275 273 275 281 285 285 283 280
211 212 207 202 202 185 174 172 189 219 198 178 200 203 189 182 177 174 175 177 201 252 232 178 234 227 303 285 293 309 299 285 278 279 285 287 286 287
210 221 224 209 201 195 187 190 207 195 176 169 174 175 151 169 187 189 185 181 190 229 217 172 202 214 231 280 303 296 295 297 302 294 293 288 288 286
207 217 215 202 203 201 197 204 197 169 154 157 172 196 202 218 219 201 193 196 202 218 211 180 188 200 210 257 280 299 296 297 296 294 298 298 291 287
206 202 202 201 197 197 200 196 184 168 166 181 205 222 219 213 200 188 174 175 231 259 223 200 191 198 195 217 244 265 284 285 283 278 282 278 274 280
203 203 199 199 189 190 196 193 181 184 184 200 214 224 204 190 198 189 190 182 223 298 300 230 206 190 210 225 225 249 251 267 286 274 268 272 286 282
166 145 158 176 197 207 205 204 192 183 200 207 204 205 201 204 226 205 189 184 204 243 274 291 267 211 211 211 232 248 256 262 261 266 273 277 272 277
153 183 205 207 210 209 208 213 212 211 214 207 204 209 206 205 217 218 192 194 217 234 244 247 240 335 324 282 228 236 252 258 264 257 246 255 274 277
180 204 212 215 217 213 211 213 221 219 206 203 208 213 211 206 206 215 210 215 229 236 241 231 204 198 250 273 271 226 229 252 255 261 250 239 257 268
208 214 218 218 215 215 215 218 220 211 203 208 210 213 212 210 214 218 219 221 228 236 243 239 221 217 227 246 259 272 244 232 239 258 265 259 261 279
218 222 223 221 220 218 218 217 214 211 206 205 210 213 212 208 217 221 223 226 226 228 237 244 243 236 232 237 272 276 272 253 245 246 255 269 284 290
218 223 226 224 220 217 215 212 212 214 210 211 214 215 214 211 217 220 220 225 230 234 242 250 248 219 213 234 254 266 274 283 271 266 267 261 248 259
222 222 224 223 220 216 213 210 211 217 216 214 215 216 214 215 220 219 218 222 227 234 240 251 250 233 239 238 250 263 270 277 284 291 289 289 277 279
Height
1552 1552 1552 1552 1553 1553 1554 1555 1556 1555 1556 1556 1556 1556 1556 1556 1556 1556 1555 1555 1555 1554 1554 1554 1553 1553 1552 1552 1551 1550 1549 1549 1548 1547 1546 1545 1544 1542
1551 1551 1551 1552 1552 1553 1553 1554 1554 1555 1554 1555 1555 1556 1556 1556 1556 1556 1555 1555 1555 1554 1554 1554 1553 1553 1552 1552 1551 1550 1549 1548 1547 1546 1545 1544 1543 1541
1550 1550 1550 1551 1551 1552 1552 1553 1553 1553 1553 1554 1555 1555 1555 1555 1555 1555 1555 1555 1554 1554 1554 1553 1553 1552 1551 1551 1550 1550 1549 1548 1547 1546 1544 1543 1542 1540
1548 1549 1549 1550 1550 1551 1551 1551 1552 1552 1553 1553 1553 1554 1554 1555 1555 1554 1554 1554 1554 1553 1553 1553 1552 1551 1551 1550 1549 1549 1548 1547 1546 1544 1543 1542 1540 1539
1547 1548 1548 1548 1549 1549 1550 1550 1550 1551 1551 1552 1552 1553 1553 1553 1554 1554 1553 1553 1553 1552 1552 1552 1551 1550 1550 1549 1548 1547 1546 1545 1544 1543 1542 1540 1539 1537
1546 1546 1547 1547 1547 1548 1548 1548 1549 1549 1550 1550 1551 1551 1552 1552 1552 1552 1552 1552 1551 1551 1551 1550 1550 1549 1548 1547 1547 1546 1545 1544 1542 1541 1540 1538 1537 1535
1544 1544 1545 1545 1546 1546 1546 1547 1547 1548 1548 1549 1549 1549 1550 1550 1550 1550 1550 1550 1550 1549 1549 1548 1548 1547 1546 1545 1545 1544 1543 1541 1540 1539 1537 1536 1534 1533
1542 1542 1543 1544 1544 1544 1544 1545 1546 1546 1546 1547 1547 1547 1548 1548 1548 1548 1548 1548 1547 1548 1547 1546 1546 1545 1544 1543 1542 1541 1540 1539 1538 1537 1535 1534 1532 1531
1540 1540 1540 1541 1541 1542 1542 1543 1543 1544 1545 1545 1545 1545 1545 1546 1546 1546 1546 1545 1545 1545 1545 1543 1543 1543 1542 1541 1540 1539 1538 1536 1535 1534 1532 1531 1530 1528
1537 1537 1538 1538 1539 1539 1539 1540 1540 1541 1541 1542 1542 1542 1543 1543 1543 1544 1543 1543 1543 1543 1543 1541 1540 1540 1539 1538 1537 1536 1535 1534 1532 1531 1529 1528 1527 1525
1533 1534 1535 1535 1536 1536 1537 1537 1537 1538 1538 1539 1539 1539 1540 1540 1540 1541 1540 1540 1539 1539 1540 1538 1537 1536 1535 1535 1534 1533 1532 1531 1529 1528 1527 1525 1524 1522
1530 1531 1531 1532 1533 1533 1533 1533 1534 1535 1535 1535 1536 1536 1536 1537 1537 1537 1537 1537 1536 1536 1536 1535 1534 1533 1532 1531 1531 1530 1528 1527 1526 1525 1523 1522 1520 1519
1526 1527 1528 1528 1529 1529 1530 1530 1531 1532 1532 1532 1532 1532 1532 1533 1533 1533 1534 1533 1533 1532 1533 1532 1531 1530 1530 1528 1527 1526 1525 1524 1523 1521 1520 1518 1517 1515
1522 1523 1524 1524 1525 1526 1526 1527 1527 1528 1528 1528 1528 1528 1528 1529 1529 1530 1530 1530 1529 1529 1529 1528 1527 1527 1526 1524 1523 1522 1521 1520 1519 1517 1516 1514 1513 1511
1519 1519 1520 1520 1521 1521 1522 1522 1523 1523 1524 1524 1524 1524 1525 1525 1526 1526 1526 1526 1525 1525 1524 1524 1523 1523 1522 1520 1519 1518 1517 1516 1515 1513 1511 1510 1508 1506
1515 1515 1516 1516 1517 1517 1518 1518 1518 1519 1519 1520 1520 1520 1521 1521 1521 1521 1521 1521 1520 1520 1520 1520 1519 1519 1517 1516 1515 1513 1513 1511 1510 1509 1507 1505 1503 1502
1511 1511 1511 1511 1512 1512 1513 1513 1514 1514 1515 1515 1515 1516 1516 1516 1516 1516 1516 1516 1516 1515 1515 1515 1515 1514 1513 1512 1510 1509 1508 1507 1505 1504 1502 1500 1498 1497
1507 1506 1506 1507 1507 1508 1508 1509 1509 1510 1510 1511 1511 1511 1511 1511 1512 1512 1512 1511 1511 1510 1510 1510 1510 1509 1508 1506 1506 1504 1503 1502 1500 1499 1497 1495 1493 1492
1501 1501 1502 1502 1502 1503 1504 1504 1504 1505 1505 1506 1506 1506 1507 1507 1507 1507 1507 1506 1506 1506 1505 1505 1505 1504 1502 1500 1500 1500 1498 1496 1495 1494 1492 1490 1487 1486
1496 1497 1497 1497 1498 1498 1499 1499 1500 1500 1500 1500 1501 1501 1501 1502 1502 1502 1502 1501 1501 1500 1500 1500 1499 1498 1498 1496 1495 1494 1493 1492 1490 1488 1487 1484 1482 1481
1491 1492 1492 1493 1493 1494 1494 1494 1494 1495 1495 1495 1496 1496 1496 1496 1496 1497 1497 1496 1496 1495 1494 1494 1494 1494 1493 1492 1490 1487 1488 1487 1485 1484 1482 1479 1477 1474
1486 1487 1487 1487 1488 1488 1489 1489 1489 1489 1490 1490 1490 1491 1491 1491 1491 1491 1491 1490 1490 1489 1489 1489 1488 1488 1487 1486 1484 1482 1481 1481 1480 1479 1477 1476 1473 1469
1480 1481 1481 1482 1482 1483 1483 1483 1483 1483 1484 1484 1484 1485 1485 1485 1485 1485 1485 1485 1484 1484 1483 1483 1482 1482 1481 1480 1479 1477 1476 1475 1473 1472 1471 1470 1469 1467